軌道要素
Epoch 2016 Jan. 13.0 TT = JDT 2457400.5
T 2016 Jan. 19.03311 TT MPCW
q 2.5251346 (2000.0) P Q
n 0.06587737 Peri. 280.81906 +0.89114071 -0.42942251
a 6.0717220 Node 104.74486 +0.45245322 +0.81685892
e 0.5841156 Incl. 8.71368 +0.03397520 +0.38514649
P 14.96
From 75 observations 2015 July 24-Dec. 11, mean residual 0".4.
|